Williston, VT

9:14 PM EST on February 27, 2017 (GMT -0500)
Burlington International

Weather History for KBTV - December, 2013

Change the Weather History Date:

Sunday, December 29, 2013

  Actual Average Record
Temperature  
Mean Temperature 36 °F 21 °F  
Max Temperature 42 °F 29 °F 58 °F (1984)
Min Temperature 29 °F 13 °F -29 °F (1933)
Degree Days  
Heating Degree Days 29 44  
Month to date heating degree days 1182 1125  
Since 1 July heating degree days 2675 2670  
Cooling Degree Days 0 0  
Month to date cooling degree days 0 0  
Year to date cooling degree days 662 491  
Moisture  
Dew Point 30 °F    
Average Humidity 77    
Maximum Humidity 96    
Minimum Humidity 57    
Precipitation  
Precipitation 0.17 in 0.07 in 0.95 in (2015)
Month to date precipitation 2.53 2.25  
Year to date precipitation 44.98 36.69  
Snow  
Snow T in 0.70 in 9.00 in (1967)
Month to date snowfall 15.0 16.6  
Since 1 July snowfall 21.4 22.0  
Snow Depth 7.00 in    
Sea Level Pressure  
Sea Level Pressure 29.75 in    
Wind  
Wind Speed 6 mph (SSW)    
Max Wind Speed 16 mph    
Max Gust Speed 21 mph    
Visibility 6 miles    
Events Rain    
T = Trace of Precipitation, MM = Missing Value Source: NWS Daily Summary

Daily Weather History Graph

Daily Weather History Graph

Search for Another Location

Airport or City:

Trip Planner

Search our weather history database for the weather conditions in past years. The results will help you decide how hot, cold, wet, or windy it might be!

Date:

Astronomy

Dec. 29, 2013 Rise Set
Actual Time 7:28 AM EST 4:21 PM EST
Civil Twilight 6:55 AM EST 4:54 PM EST
Nautical Twilight 6:18 AM EST 5:31 PM EST
Astronomical Twilight 5:43 AM EST 6:06 PM EST
Moon 4:05 AM EST (12/29) 1:59 PM EST (12/29)
Length of Visible Light 9h 59m
Length of Day
8h 52m
Waning Crescent, 11% of the Moon is Illuminated
Dec 29
Waning Crescent
Jan 1
New
Jan 7
First Quarter
Jan 15
Full
Jan 24
Last Quarter

Hourly Weather History & Observations

Time (EST) Temp. Windchill Dew Point Humidity Pressure Visibility Wind Dir Wind Speed Gust Speed Precip Events Conditions
12:09 AM 32.0 °F - 30.0 °F 92% 29.97 in 2.0 mi Calm Calm - N/A   Mostly Cloudy
12:25 AM 32.0 °F - 30.0 °F 92% 29.97 in 1.8 mi Calm Calm - N/A   Scattered Clouds
12:42 AM 30.9 °F 26.2 °F 30.0 °F 96% 29.98 in 3.0 mi SW 4.6 mph - N/A   Mostly Cloudy
12:54 AM 33.1 °F 28.7 °F 30.0 °F 89% 29.98 in 6.0 mi SSW 4.6 mph - N/A   Overcast
1:54 AM 30.9 °F - 28.9 °F 92% 29.97 in 6.0 mi Calm Calm - N/A   Clear
2:54 AM 30.9 °F - 28.0 °F 89% 29.96 in 8.0 mi Calm Calm - N/A   Clear
3:54 AM 33.1 °F 30.0 °F 28.9 °F 85% 29.95 in 9.0 mi South 3.5 mph - N/A   Clear
4:54 AM 32.0 °F 28.7 °F 28.0 °F 85% 29.94 in 8.0 mi SSW 3.5 mph - N/A   Clear
5:54 AM 35.1 °F 27.9 °F 28.9 °F 78% 29.93 in 10.0 mi South 9.2 mph - N/A   Clear
6:54 AM 35.1 °F 27.4 °F 28.0 °F 76% 29.91 in 10.0 mi South 10.4 mph - N/A   Clear
7:54 AM 35.1 °F 31.0 °F 28.0 °F 76% 29.91 in 10.0 mi South 4.6 mph - N/A   Clear
8:54 AM 35.1 °F 29.3 °F 28.9 °F 78% 29.91 in 10.0 mi South 6.9 mph - N/A   Clear
9:54 AM 36.0 °F 29.6 °F 28.9 °F 76% 29.88 in 10.0 mi SSE 8.1 mph - N/A   Clear
10:54 AM 37.9 °F 30.5 °F 28.9 °F 70% 29.85 in 10.0 mi SSW 11.5 mph - N/A   Clear
11:54 AM 37.9 °F 34.4 °F 30.0 °F 73% 29.82 in 10.0 mi South 4.6 mph - N/A   Clear
12:54 PM 39.9 °F 33.9 °F 30.0 °F 68% 29.76 in 10.0 mi South 9.2 mph - N/A   Mostly Cloudy
1:54 PM 41.0 °F 34.7 °F 28.9 °F 62% 29.72 in 10.0 mi South 10.4 mph - N/A   Mostly Cloudy
2:54 PM 41.0 °F 34.7 °F 28.9 °F 62% 29.70 in 10.0 mi South 10.4 mph - N/A   Overcast
3:54 PM 42.1 °F 36.6 °F 28.9 °F 60% 29.70 in 10.0 mi SSW 9.2 mph - N/A   Overcast
4:54 PM 41.0 °F 36.4 °F 30.9 °F 67% 29.68 in 10.0 mi SSW 6.9 mph - N/A   Overcast
5:54 PM 39.0 °F 35.7 °F 33.1 °F 79% 29.65 in 10.0 mi SSW 4.6 mph - 0.02 in Rain Light Rain
6:40 PM 32.0 °F 26.4 °F 30.0 °F 92% 29.64 in 3.0 mi NW 5.8 mph - 0.02 in Rain Light Freezing Rain
6:54 PM 30.0 °F 22.4 °F 28.0 °F 92% 29.65 in 2.5 mi NW 8.1 mph - 0.03 in Rain Light Freezing Rain
7:07 PM 30.0 °F 22.4 °F 28.0 °F 92% 29.64 in 3.0 mi NW 8.1 mph - 0.00 in Rain Light Freezing Rain
7:24 PM 30.0 °F 26.5 °F 28.0 °F 92% 29.63 in 3.0 mi NW 3.5 mph - 0.00 in Rain Light Freezing Rain
7:32 PM 30.0 °F - 28.0 °F 92% 29.63 in 3.0 mi Calm Calm - 0.01 in Rain Light Freezing Rain
7:54 PM 30.9 °F - 28.0 °F 89% 29.63 in 3.0 mi Calm Calm - 0.03 in Rain Light Freezing Rain
8:00 PM 30.9 °F 26.2 °F 28.0 °F 89% 29.61 in 2.5 mi SE 4.6 mph - 0.00 in Rain Light Freezing Rain
8:42 PM 33.1 °F - 30.9 °F 92% 29.60 in 2.5 mi Calm Calm - 0.06 in Rain Light Rain
8:54 PM 33.1 °F 30.0 °F 30.9 °F 92% 29.62 in 2.5 mi West 3.5 mph - 0.07 in Rain Light Rain
9:38 PM 33.1 °F 27.7 °F 30.9 °F 92% 29.58 in 2.0 mi SE 5.8 mph - 0.02 in Rain Light Rain
9:54 PM 34.0 °F 29.8 °F 32.0 °F 92% 29.60 in 3.0 mi SW 4.6 mph - 0.02 in Rain Light Rain
10:05 PM 34.0 °F 29.8 °F 32.0 °F 92% 29.59 in 4.0 mi SW 4.6 mph - 0.00 in   Overcast
10:15 PM 34.0 °F - 33.1 °F 96% 29.59 in 4.0 mi Calm Calm - 0.00 in   Overcast
10:54 PM 34.0 °F 28.8 °F 32.0 °F 92% 29.60 in 3.0 mi WSW 5.8 mph - 0.00 in   Overcast
11:04 PM 34.0 °F 28.8 °F 32.0 °F 92% 29.58 in 2.5 mi SW 5.8 mph - N/A   Overcast
11:18 PM 34.0 °F 29.8 °F 32.0 °F 92% 29.58 in 1.2 mi SW 4.6 mph - N/A   Overcast
11:31 PM 33.1 °F 30.0 °F 32.0 °F 96% 29.58 in 0.8 mi West 3.5 mph - N/A   Mist
11:54 PM 34.0 °F 28.8 °F 33.1 °F 96% 29.59 in 1.0 mi SW 5.8 mph - N/A   Mist
11:58 PM 34.0 °F 31.0 °F 32.0 °F 92% 29.58 in 2.0 mi WSW 3.5 mph - N/A   Overcast